Weather in Houston

United States     29°45′49″N   95°21′47″W
temp.,
°C
wind,
m/s
gust,
m/s
humid.,
%
clouds,
%
prec.,
mm/h
press.,
hPa
HPBL,
m
18 may, tue
tue1801:00+23s4139087 0.3 1010516
04:00+22ene2296100 0.0 101065
07:00+22ese299899 0.4 1011322
10:00+27sse4773100 0.3 1012845
13:00+30sse695686 0.4 10111448
16:00+30sse795715 0.0 10091665
19:00+28sse59715 0.1 10081071
22:00+25se511882 1.2 1010615
19 may, wed
wed1901:00+24sse512904 2.1 1010604
04:00+24sse5139118 0.0 1009698
07:00+24sse4119472 0.2 1012720
10:00+27sse697645 0.4 10121038
13:00+29se710676 1.4 10111398
16:00+30se8106696 0.1 10091411
19:00+25sse61183100 5.3 1010788
22:00+20e3394100 18.7 1012130
20 may, thu
thu2001:00+22ese5149078 20.3 1011502
04:00+21se119380 1.1 101253
07:00+22ssw2797100 1.7 1013395
10:00+22ne2296100 16.8 101383
13:00+27ese4775100 18.8 1014842
16:00+27ese587687 0.6 10131037
19:00+24e6118996 2.5 1013850
22:00+23se5118995 0.1 1015931
21 may, fri
fri2101:00+23ese3109086 0.3 1015772
04:00+23ese5119399 5.2 1015588
07:00+23ese41192100 11.9 1017507
10:00+23ese51090100 5.7 1018522
13:00+26ese6980100 8.0 1019898
16:00+25ese61187100 2.1 1018902
19:00+23ese61495100 6.6 1018991
22:00+23ese7139296 2.6 1020946
22 may, sat
sat2201:00+23ese61291100 3.9 1020896
04:00+23ese5119293 0.7 1019762
07:00+23ese5119294 1.4 1020731
10:00+25ese6108425 1.3 1022922
13:00+27ese7107113 2.9 10211226
16:00+27ese7106722 0.8 10201273
19:00+26ese597396 1.0 10201069
22:00+24ese4108082 0.0 1021796